Zurück zum Katalog

COSMOS 2251 DEB

AktivLEO
NORAD 36050·DEBRIS·🇷🇺 Russia

Gestartet Jun 16, 1993 von Plesetsk Cosmodrome

Loading…

Nächste Überflüge (nächste 24 Stunden)

TLE

AktuellSource: Space-Track

Epoche: Sep 12, 2026, 13:04 UTC

1 36050U 93036AXM 26255.54472758  .00003816  00000-0  25336-3 0  9997
2 36050  74.0329 354.4181 0081422 359.9853   0.1318 15.04899274711490

Verfolge COSMOS 2251 DEB in Echtzeit mit AllMySat

Download on the App Store